Date_Time,Julian_Date,Latitude,Longitude,Instrument_Depth,U,V,Speed,Direction
(yyyy-mm-dd hh:mn:ss UTC),(JD),(+ deg. North),(+ deg. East),(m),(cm/s),(cm/s),(cm/s),(deg True)
1984-07-17 19:53:00 UTC,2445899.328472,25.8817,-84.3197,0179,-5.11,-4.28,6.6656,230.0514
1984-07-17 20:08:00 UTC,2445899.338889,25.8817,-84.3197,0179,-7.20,-5.64,9.1460,231.9272
1984-07-17 20:23:00 UTC,2445899.349306,25.8817,-84.3197,0179,-7.37,-6.03,9.5225,230.7106
1984-07-17 20:38:00 UTC,2445899.359722,25.8817,-84.3197,0179,-5.24,-4.11,6.6596,231.8911
1984-07-17 20:53:00 UTC,2445899.370139,25.8817,-84.3197,0179,-3.38,-3.08,4.5728,227.6589
1984-07-17 21:08:00 UTC,2445899.380556,25.8817,-84.3197,0179,-3.99,-3.82,5.5238,226.2470
1984-07-17 21:23:00 UTC,2445899.390972,25.8817,-84.3197,0179,-2.62,-2.76,3.8055,223.5094
1984-07-17 21:38:00 UTC,2445899.401389,25.8817,-84.3197,0179,-3.04,-2.25,3.7821,233.4937
1984-07-17 21:53:00 UTC,2445899.411806,25.8817,-84.3197,0179,-3.51,-0.81,3.6022,257.0054
1984-07-17 22:08:00 UTC,2445899.422222,25.8817,-84.3197,0179,-4.73,-0.39,4.7461,265.2865
1984-07-17 22:23:00 UTC,2445899.432639,25.8817,-84.3197,0179,-2.69,-3.00,4.0294,221.8815
1984-07-17 22:38:00 UTC,2445899.443056,25.8817,-84.3197,0179,0.20,-3.51,3.5157,176.7388
1984-07-17 22:53:00 UTC,2445899.453472,25.8817,-84.3197,0179,-1.18,-3.07,3.2890,201.0250
1984-07-17 23:08:00 UTC,2445899.463889,25.8817,-84.3197,0179,-2.97,-2.53,3.9015,229.5739
1984-07-17 23:23:00 UTC,2445899.474306,25.8817,-84.3197,0179,-3.10,-2.05,3.7165,236.5237
1984-07-17 23:38:00 UTC,2445899.484722,25.8817,-84.3197,0179,-3.09,-1.49,3.4305,244.2566
1984-07-17 23:53:00 UTC,2445899.495139,25.8817,-84.3197,0179,-2.25,-1.55,2.7322,235.4375
1984-07-18 00:08:00 UTC,2445899.505556,25.8817,-84.3197,0179,-2.33,-1.80,2.9443,232.3128
1984-07-18 00:23:00 UTC,2445899.515972,25.8817,-84.3197,0179,-3.47,0.22,3.4770,273.6277
1984-07-18 00:38:00 UTC,2445899.526389,25.8817,-84.3197,0179,-3.59,0.97,3.7187,285.1200
1984-07-18 00:53:00 UTC,2445899.536806,25.8817,-84.3197,0179,-3.69,2.30,4.3481,301.9355
1984-07-18 01:08:00 UTC,2445899.547222,25.8817,-84.3197,0179,-2.15,3.13,3.7973,325.5148
1984-07-18 01:23:00 UTC,2445899.557639,25.8817,-84.3197,0179,-1.72,1.47,2.2626,310.5189
1984-07-18 01:38:00 UTC,2445899.568056,25.8817,-84.3197,0179,0.19,-1.80,1.8100,173.9744
1984-07-18 01:53:00 UTC,2445899.578472,25.8817,-84.3197,0179,-0.65,-1.82,1.9326,199.6538
1984-07-18 02:08:00 UTC,2445899.588889,25.8817,-84.3197,0179,2.09,-1.81,2.7648,130.8935
1984-07-18 02:23:00 UTC,2445899.599306,25.8817,-84.3197,0179,5.15,-1.99,5.5211,111.1269
1984-07-18 02:38:00 UTC,2445899.609722,25.8817,-84.3197,0179,3.25,-3.63,4.8723,138.1614
1984-07-18 02:53:00 UTC,2445899.620139,25.8817,-84.3197,0179,2.64,-4.51,5.2259,149.6567
1984-07-18 03:08:00 UTC,2445899.630556,25.8817,-84.3197,0179,1.87,-4.17,4.5701,155.8466
1984-07-18 03:23:00 UTC,2445899.640972,25.8817,-84.3197,0179,0.85,-4.78,4.8550,169.9168
1984-07-18 03:38:00 UTC,2445899.651389,25.8817,-84.3197,0179,0.79,-4.30,4.3720,169.5897
1984-07-18 03:53:00 UTC,2445899.661806,25.8817,-84.3197,0179,2.72,-2.50,3.6944,132.5867
1984-07-18 04:08:00 UTC,2445899.672222,25.8817,-84.3197,0179,6.14,-2.84,6.7650,114.8225
1984-07-18 04:23:00 UTC,2445899.682639,25.8817,-84.3197,0179,4.32,-5.32,6.8531,140.9223
1984-07-18 04:38:00 UTC,2445899.693056,25.8817,-84.3197,0179,3.88,-5.16,6.4560,143.0591
1984-07-18 04:53:00 UTC,2445899.703472,25.8817,-84.3197,0179,2.93,-6.10,6.7672,154.3437
1984-07-18 05:08:00 UTC,2445899.713889,25.8817,-84.3197,0179,3.27,-5.76,6.6235,150.4161
1984-07-18 05:23:00 UTC,2445899.724306,25.8817,-84.3197,0179,3.87,-3.76,5.3958,134.1740
1984-07-18 05:38:00 UTC,2445899.734722,25.8817,-84.3197,0179,4.26,-1.89,4.6604,113.9250
1984-07-18 05:53:00 UTC,2445899.745139,25.8817,-84.3197,0179,4.80,-1.83,5.1370,110.8693
1984-07-18 06:08:00 UTC,2445899.755556,25.8817,-84.3197,0179,2.36,-4.67,5.2324,153.1901
1984-07-18 06:23:00 UTC,2445899.765972,25.8817,-84.3197,0179,2.31,-2.90,3.7076,141.4609
1984-07-18 06:38:00 UTC,2445899.776389,25.8817,-84.3197,0179,1.10,-5.61,5.7168,168.9063
1984-07-18 06:53:00 UTC,2445899.786806,25.8817,-84.3197,0179,0.18,-5.33,5.3330,178.0658
1984-07-18 07:08:00 UTC,2445899.797222,25.8817,-84.3197,0179,-1.28,-5.96,6.0959,192.1210
1984-07-18 07:23:00 UTC,2445899.807639,25.8817,-84.3197,0179,-3.02,-6.47,7.1401,205.0217
1984-07-18 07:38:00 UTC,2445899.818056,25.8817,-84.3197,0179,-3.00,-5.74,6.4767,207.5937
1984-07-18 07:53:00 UTC,2445899.828472,25.8817,-84.3197,0179,-1.95,-6.35,6.6427,197.0710
1984-07-18 08:08:00 UTC,2445899.838889,25.8817,-84.3197,0179,-4.22,-6.90,8.0882,211.4497
1984-07-18 08:23:00 UTC,2445899.849306,25.8817,-84.3197,0179,-4.37,-6.71,8.0076,213.0749
1984-07-18 08:38:00 UTC,2445899.859722,25.8817,-84.3197,0179,-4.46,-6.40,7.8007,214.8717
1984-07-18 08:53:00 UTC,2445899.870139,25.8817,-84.3197,0179,-4.80,-5.92,7.6214,219.0355
1984-07-18 09:08:00 UTC,2445899.880556,25.8817,-84.3197,0179,-4.47,-5.93,7.4260,217.0088
1984-07-18 09:23:00 UTC,2445899.890972,25.8817,-84.3197,0179,-4.38,-6.23,7.6156,215.1091
1984-07-18 09:38:00 UTC,2445899.901389,25.8817,-84.3197,0179,-5.25,-7.37,9.0487,215.4641
1984-07-18 09:53:00 UTC,2445899.911806,25.8817,-84.3197,0179,-5.40,-7.14,8.9521,217.1003
1984-07-18 10:08:00 UTC,2445899.922222,25.8817,-84.3197,0179,-5.15,-6.37,8.1914,218.9548
1984-07-18 10:23:00 UTC,2445899.932639,25.8817,-84.3197,0179,-4.88,-5.98,7.7185,219.2163
1984-07-18 10:38:00 UTC,2445899.943056,25.8817,-84.3197,0179,-4.25,-6.09,7.4263,214.9099
1984-07-18 10:53:00 UTC,2445899.953472,25.8817,-84.3197,0179,-3.74,-5.40,6.5687,214.7062
1984-07-18 11:08:00 UTC,2445899.963889,25.8817,-84.3197,0179,-4.08,-5.51,6.8561,216.5189
1984-07-18 11:23:00 UTC,2445899.974306,25.8817,-84.3197,0179,-3.07,-5.04,5.9014,211.3467
1984-07-18 11:38:00 UTC,2445899.984722,25.8817,-84.3197,0179,-3.56,-4.82,5.9922,216.4492
1984-07-18 11:53:00 UTC,2445899.995139,25.8817,-84.3197,0179,-3.34,-4.99,6.0046,213.7959
1984-07-18 12:08:00 UTC,2445900.005556,25.8817,-84.3197,0179,-2.42,-4.54,5.1447,208.0594
1984-07-18 12:23:00 UTC,2445900.015972,25.8817,-84.3197,0179,0.08,-4.76,4.7607,179.0371
1984-07-18 12:38:00 UTC,2445900.026389,25.8817,-84.3197,0179,-2.39,-4.77,5.3353,206.6131
1984-07-18 12:53:00 UTC,2445900.036806,25.8817,-84.3197,0179,-2.07,-5.64,6.0079,200.1542
1984-07-18 13:08:00 UTC,2445900.047222,25.8817,-84.3197,0179,-0.20,-4.95,4.9540,182.3137
1984-07-18 13:23:00 UTC,2445900.057639,25.8817,-84.3197,0179,0.07,-5.42,5.4205,179.2601
1984-07-18 13:38:00 UTC,2445900.068056,25.8817,-84.3197,0179,-1.60,-5.47,5.6992,196.3044
1984-07-18 13:53:00 UTC,2445900.078472,25.8817,-84.3197,0179,0.01,-6.38,6.3800,179.9102
1984-07-18 14:08:00 UTC,2445900.088889,25.8817,-84.3197,0179,0.59,-6.54,6.5666,174.8451
1984-07-18 14:23:00 UTC,2445900.099306,25.8817,-84.3197,0179,1.51,-6.79,6.9559,167.4622
1984-07-18 14:38:00 UTC,2445900.109722,25.8817,-84.3197,0179,0.20,-7.05,7.0528,178.3750
1984-07-18 14:53:00 UTC,2445900.120139,25.8817,-84.3197,0179,0.45,-7.02,7.0344,176.3322
1984-07-18 15:08:00 UTC,2445900.130556,25.8817,-84.3197,0179,0.45,-7.99,8.0027,176.7765
1984-07-18 15:23:00 UTC,2445900.140972,25.8817,-84.3197,0179,0.89,-8.62,8.6658,174.1052
1984-07-18 15:38:00 UTC,2445900.151389,25.8817,-84.3197,0179,1.86,-8.17,8.3791,167.1745
1984-07-18 15:53:00 UTC,2445900.161806,25.8817,-84.3197,0179,2.19,-8.19,8.4777,165.0294
1984-07-18 16:08:00 UTC,2445900.172222,25.8817,-84.3197,0179,1.44,-8.55,8.6704,170.4399
1984-07-18 16:23:00 UTC,2445900.182639,25.8817,-84.3197,0179,1.33,-9.72,9.8106,172.2085
1984-07-18 16:38:00 UTC,2445900.193056,25.8817,-84.3197,0179,1.33,-9.62,9.7115,172.1285
1984-07-18 16:53:00 UTC,2445900.203472,25.8817,-84.3197,0179,0.48,-9.70,9.7119,177.1671
1984-07-18 17:08:00 UTC,2445900.213889,25.8817,-84.3197,0179,-1.44,-10.64,10.7370,187.7075
1984-07-18 17:23:00 UTC,2445900.224306,25.8817,-84.3197,0179,-1.96,-11.85,12.0110,189.3918
1984-07-18 17:38:00 UTC,2445900.234722,25.8817,-84.3197,0179,-5.42,-12.49,13.6153,203.4583
1984-07-18 17:53:00 UTC,2445900.245139,25.8817,-84.3197,0179,-5.03,-11.11,12.1956,204.3584
1984-07-18 18:08:00 UTC,2445900.255556,25.8817,-84.3197,0179,-2.13,-13.70,13.8646,188.8373
1984-07-18 18:23:00 UTC,2445900.265972,25.8817,-84.3197,0179,-2.47,-14.56,14.7680,189.6282
1984-07-18 18:38:00 UTC,2445900.276389,25.8817,-84.3197,0179,-2.57,-14.15,14.3815,190.2942
1984-07-18 18:53:00 UTC,2445900.286806,25.8817,-84.3197,0179,-5.55,-11.68,12.9315,205.4157
1984-07-18 19:08:00 UTC,2445900.297222,25.8817,-84.3197,0179,-6.60,-11.59,13.3375,209.6596
1984-07-18 19:23:00 UTC,2445900.307639,25.8817,-84.3197,0179,-7.28,-12.51,14.4741,210.1966
1984-07-18 19:38:00 UTC,2445900.318056,25.8817,-84.3197,0179,-7.72,-11.23,13.6276,214.5064
1984-07-18 19:53:00 UTC,2445900.328472,25.8817,-84.3197,0179,-7.67,-12.06,14.2924,212.4558
1984-07-18 20:08:00 UTC,2445900.338889,25.8817,-84.3197,0179,-8.29,-11.28,13.9987,216.3132
1984-07-18 20:23:00 UTC,2445900.349306,25.8817,-84.3197,0179,-7.63,-10.47,12.9552,216.0827
1984-07-18 20:38:00 UTC,2445900.359722,25.8817,-84.3197,0179,-8.36,-10.15,13.1496,219.4764
1984-07-18 20:53:00 UTC,2445900.370139,25.8817,-84.3197,0179,-8.83,-10.50,13.7193,220.0622
1984-07-18 21:08:00 UTC,2445900.380556,25.8817,-84.3197,0179,-9.66,-11.30,14.8663,220.5261
1984-07-18 21:23:00 UTC,2445900.390972,25.8817,-84.3197,0179,-8.82,-10.25,13.5224,220.7116
1984-07-18 21:38:00 UTC,2445900.401389,25.8817,-84.3197,0179,-9.66,-10.66,14.3858,222.1826
1984-07-18 21:53:00 UTC,2445900.411806,25.8817,-84.3197,0179,-10.46,-10.28,14.6659,225.4973
1984-07-18 22:08:00 UTC,2445900.422222,25.8817,-84.3197,0179,-8.75,-9.29,12.7619,223.2854
1984-07-18 22:23:00 UTC,2445900.432639,25.8817,-84.3197,0179,-6.40,-8.05,10.2841,218.4858
1984-07-18 22:38:00 UTC,2445900.443056,25.8817,-84.3197,0179,-6.47,-7.63,10.0039,220.2969
1984-07-18 22:53:00 UTC,2445900.453472,25.8817,-84.3197,0179,-6.97,-7.83,10.4828,221.6744
1984-07-18 23:08:00 UTC,2445900.463889,25.8817,-84.3197,0179,-7.00,-7.67,10.3841,222.3850
1984-07-18 23:23:00 UTC,2445900.474306,25.8817,-84.3197,0179,-7.35,-7.20,10.2889,225.5907
1984-07-18 23:38:00 UTC,2445900.484722,25.8817,-84.3197,0179,-6.11,-7.19,9.4355,220.3576
1984-07-18 23:53:00 UTC,2445900.495139,25.8817,-84.3197,0179,-5.62,-6.48,8.5776,220.9346
1984-07-19 00:08:00 UTC,2445900.505556,25.8817,-84.3197,0179,-6.29,-6.64,9.1462,223.4495
1984-07-19 00:23:00 UTC,2445900.515972,25.8817,-84.3197,0179,-6.89,-7.52,10.1991,222.4966
1984-07-19 00:38:00 UTC,2445900.526389,25.8817,-84.3197,0179,-6.12,-7.66,9.8046,218.6233
1984-07-19 00:53:00 UTC,2445900.536806,25.8817,-84.3197,0179,-6.21,-7.84,10.0015,218.3825
1984-07-19 01:08:00 UTC,2445900.547222,25.8817,-84.3197,0179,-5.40,-7.48,9.2255,215.8265
1984-07-19 01:23:00 UTC,2445900.557639,25.8817,-84.3197,0179,-5.71,-7.27,9.2443,218.1468
1984-07-19 01:38:00 UTC,2445900.568056,25.8817,-84.3197,0179,-5.59,-6.75,8.7642,219.6298
1984-07-19 01:53:00 UTC,2445900.578472,25.8817,-84.3197,0179,-5.60,-7.23,9.1451,217.7596
1984-07-19 02:08:00 UTC,2445900.588889,25.8817,-84.3197,0179,-5.60,-6.99,8.9566,218.6998
1984-07-19 02:23:00 UTC,2445900.599306,25.8817,-84.3197,0179,-5.60,-6.99,8.9566,218.6998
1984-07-19 02:38:00 UTC,2445900.609722,25.8817,-84.3197,0179,-6.08,-6.71,9.0549,222.1801
1984-07-19 02:53:00 UTC,2445900.620139,25.8817,-84.3197,0179,-4.87,-6.47,8.0980,216.9690
1984-07-19 03:08:00 UTC,2445900.630556,25.8817,-84.3197,0179,-4.08,-5.97,7.2310,214.3494
1984-07-19 03:23:00 UTC,2445900.640972,25.8817,-84.3197,0179,-4.82,-6.27,7.9086,217.5509
1984-07-19 03:38:00 UTC,2445900.651389,25.8817,-84.3197,0179,-5.55,-7.39,9.2420,216.9071
1984-07-19 03:53:00 UTC,2445900.661806,25.8817,-84.3197,0179,-5.12,-7.92,9.4308,212.8812
1984-07-19 04:08:00 UTC,2445900.672222,25.8817,-84.3197,0179,-7.16,-8.79,11.3371,219.1650
1984-07-19 04:23:00 UTC,2445900.682639,25.8817,-84.3197,0179,-7.23,-8.36,11.0527,220.8543
1984-07-19 04:38:00 UTC,2445900.693056,25.8817,-84.3197,0179,-6.57,-8.16,10.4762,218.8392
1984-07-19 04:53:00 UTC,2445900.703472,25.8817,-84.3197,0179,-5.62,-7.46,9.3400,216.9926
1984-07-19 05:08:00 UTC,2445900.713889,25.8817,-84.3197,0179,-5.20,-8.21,9.7182,212.3491
1984-07-19 05:23:00 UTC,2445900.724306,25.8817,-84.3197,0179,-5.87,-7.98,9.9064,216.3378
1984-07-19 05:38:00 UTC,2445900.734722,25.8817,-84.3197,0179,-6.40,-7.55,9.8976,220.2874
1984-07-19 05:53:00 UTC,2445900.745139,25.8817,-84.3197,0179,-7.25,-6.75,9.9058,227.0454
1984-07-19 06:08:00 UTC,2445900.755556,25.8817,-84.3197,0179,-7.39,-5.86,9.4314,231.5869
1984-07-19 06:23:00 UTC,2445900.765972,25.8817,-84.3197,0179,-6.64,-5.43,8.5776,230.7247
1984-07-19 06:38:00 UTC,2445900.776389,25.8817,-84.3197,0179,-6.43,-5.39,8.3903,230.0283
1984-07-19 06:53:00 UTC,2445900.786806,25.8817,-84.3197,0179,-6.81,-5.67,8.8614,230.2193
1984-07-19 07:08:00 UTC,2445900.797222,25.8817,-84.3197,0179,-7.09,-5.12,8.7454,234.1653
1984-07-19 07:23:00 UTC,2445900.807639,25.8817,-84.3197,0179,-7.71,-4.56,8.9576,239.3983
1984-07-19 07:38:00 UTC,2445900.818056,25.8817,-84.3197,0179,-7.34,-4.05,8.3832,241.1114
1984-07-19 07:53:00 UTC,2445900.828472,25.8817,-84.3197,0179,-7.26,-3.79,8.1897,242.4337
1984-07-19 08:08:00 UTC,2445900.838889,25.8817,-84.3197,0179,-6.93,-3.78,7.8939,241.3896
1984-07-19 08:23:00 UTC,2445900.849306,25.8817,-84.3197,0179,-7.02,-1.07,7.1011,261.3336
1984-07-19 08:38:00 UTC,2445900.859722,25.8817,-84.3197,0179,-7.27,-1.32,7.3889,259.7090
1984-07-19 08:53:00 UTC,2445900.870139,25.8817,-84.3197,0179,-7.33,0.20,7.3327,271.5629
1984-07-19 09:08:00 UTC,2445900.880556,25.8817,-84.3197,0179,-6.23,-2.64,6.7663,247.0349
1984-07-19 09:23:00 UTC,2445900.890972,25.8817,-84.3197,0179,-5.90,-3.10,6.6648,242.2815
1984-07-19 09:38:00 UTC,2445900.901389,25.8817,-84.3197,0179,-5.92,-3.58,6.9183,238.8374
1984-07-19 09:53:00 UTC,2445900.911806,25.8817,-84.3197,0179,-5.17,-3.91,6.4821,232.9003
1984-07-19 10:08:00 UTC,2445900.922222,25.8817,-84.3197,0179,-5.19,-4.34,6.7655,230.0968
1984-07-19 10:23:00 UTC,2445900.932639,25.8817,-84.3197,0179,-1.54,-1.27,1.9961,230.4884
1984-07-19 10:38:00 UTC,2445900.943056,25.8817,-84.3197,0179,-1.54,-1.28,2.0025,230.2677
1984-07-19 10:53:00 UTC,2445900.953472,25.8817,-84.3197,0179,-1.47,-1.35,1.9958,227.4366
1984-07-19 11:08:00 UTC,2445900.963889,25.8817,-84.3197,0179,-1.38,-1.45,2.0017,223.5831
1984-07-19 11:23:00 UTC,2445900.974306,25.8817,-84.3197,0179,-1.27,-1.54,1.9961,219.5116
1984-07-19 11:38:00 UTC,2445900.984722,25.8817,-84.3197,0179,-1.29,-1.53,2.0012,220.1355
1984-07-19 11:53:00 UTC,2445900.995139,25.8817,-84.3197,0179,-6.30,-6.23,8.8602,225.3201
1984-07-19 12:08:00 UTC,2445901.005556,25.8817,-84.3197,0179,-7.33,-6.10,9.5362,230.2329
1984-07-19 12:23:00 UTC,2445901.015972,25.8817,-84.3197,0179,-7.56,-7.12,10.3850,226.7168
1984-07-19 12:38:00 UTC,2445901.026389,25.8817,-84.3197,0179,-8.16,-6.88,10.6733,229.8645
1984-07-19 12:53:00 UTC,2445901.036806,25.8817,-84.3197,0179,-8.51,-7.35,11.2447,229.1832
1984-07-19 13:08:00 UTC,2445901.047222,25.8817,-84.3197,0179,-7.92,-7.43,10.8596,226.8284
1984-07-19 13:23:00 UTC,2445901.057639,25.8817,-84.3197,0179,-7.98,-7.64,11.0476,226.2470
1984-07-19 13:38:00 UTC,2445901.068056,25.8817,-84.3197,0179,-8.76,-8.07,11.9106,227.3477
1984-07-19 13:53:00 UTC,2445901.078472,25.8817,-84.3197,0179,-8.58,-6.81,10.9541,231.5608
1984-07-19 14:08:00 UTC,2445901.088889,25.8817,-84.3197,0179,-8.19,-6.23,10.2902,232.7404
1984-07-19 14:23:00 UTC,2445901.099306,25.8817,-84.3197,0179,-8.43,-5.56,10.0984,236.5932
1984-07-19 14:38:00 UTC,2445901.109722,25.8817,-84.3197,0179,-7.61,-5.23,9.2339,235.5011
1984-07-19 14:53:00 UTC,2445901.120139,25.8817,-84.3197,0179,-6.82,-4.86,8.3745,234.5260
1984-07-19 15:08:00 UTC,2445901.130556,25.8817,-84.3197,0179,-6.27,-4.97,8.0009,231.5974
1984-07-19 15:23:00 UTC,2445901.140972,25.8817,-84.3197,0179,-6.99,-4.63,8.3843,236.4805
1984-07-19 15:38:00 UTC,2445901.151389,25.8817,-84.3197,0179,-6.73,-4.51,8.1014,236.1726
1984-07-19 15:53:00 UTC,2445901.161806,25.8817,-84.3197,0179,-6.43,-4.92,8.0964,232.5781
1984-07-19 16:08:00 UTC,2445901.172222,25.8817,-84.3197,0179,-6.75,-4.97,8.3823,233.6359
1984-07-19 16:23:00 UTC,2445901.182639,25.8817,-84.3197,0179,-7.07,-4.14,8.1930,239.6479
1984-07-19 16:38:00 UTC,2445901.193056,25.8817,-84.3197,0179,-8.32,-2.81,8.7817,251.3381
1984-07-19 16:53:00 UTC,2445901.203472,25.8817,-84.3197,0179,-8.41,-2.28,8.7136,254.8314
1984-07-19 17:08:00 UTC,2445901.213889,25.8817,-84.3197,0179,-7.81,-3.76,8.6680,244.2923
1984-07-19 17:23:00 UTC,2445901.224306,25.8817,-84.3197,0179,-6.63,-4.30,7.9023,237.0339
1984-07-19 17:38:00 UTC,2445901.234722,25.8817,-84.3197,0179,-6.50,-3.96,7.6113,238.6490
1984-07-19 17:53:00 UTC,2445901.245139,25.8817,-84.3197,0179,-6.48,-4.36,7.8102,236.0658
1984-07-19 18:08:00 UTC,2445901.255556,25.8817,-84.3197,0179,-6.77,-3.70,7.7151,241.3421
1984-07-19 18:23:00 UTC,2445901.265972,25.8817,-84.3197,0179,-6.82,-3.38,7.6116,243.6369
1984-07-19 18:38:00 UTC,2445901.276389,25.8817,-84.3197,0179,-7.46,-4.04,8.4837,241.5620
1984-07-19 18:53:00 UTC,2445901.286806,25.8817,-84.3197,0179,-8.70,-2.49,9.0493,254.0285
1984-07-19 19:08:00 UTC,2445901.297222,25.8817,-84.3197,0179,-7.91,-1.69,8.0885,257.9399
1984-07-19 19:23:00 UTC,2445901.307639,25.8817,-84.3197,0179,-8.14,-2.75,8.5920,251.3331
1984-07-19 19:38:00 UTC,2445901.318056,25.8817,-84.3197,0179,-9.20,-0.81,9.2356,264.9684
1984-07-19 19:53:00 UTC,2445901.328472,25.8817,-84.3197,0179,-9.60,0.60,9.6187,273.5764
1984-07-19 20:08:00 UTC,2445901.338889,25.8817,-84.3197,0179,-10.23,1.15,10.2944,276.4139
1984-07-19 20:23:00 UTC,2445901.349306,25.8817,-84.3197,0179,-11.06,1.97,11.2341,280.0996
1984-07-19 20:38:00 UTC,2445901.359722,25.8817,-84.3197,0179,-11.35,2.50,11.6221,282.4219
1984-07-19 20:53:00 UTC,2445901.370139,25.8817,-84.3197,0179,-11.34,3.33,11.8188,286.3649
1984-07-19 21:08:00 UTC,2445901.380556,25.8817,-84.3197,0179,-11.87,3.52,12.3809,286.5175
1984-07-19 21:23:00 UTC,2445901.390972,25.8817,-84.3197,0179,-10.83,3.33,11.3304,287.0916
1984-07-19 21:38:00 UTC,2445901.401389,25.8817,-84.3197,0179,-11.17,3.23,11.6276,286.1281
1984-07-19 21:53:00 UTC,2445901.411806,25.8817,-84.3197,0179,-11.84,3.30,12.2913,285.5740
1984-07-19 22:08:00 UTC,2445901.422222,25.8817,-84.3197,0179,-11.94,3.29,12.3850,285.4052
1984-07-19 22:23:00 UTC,2445901.432639,25.8817,-84.3197,0179,-9.76,2.93,10.1903,286.7100
1984-07-19 22:38:00 UTC,2445901.443056,25.8817,-84.3197,0179,-9.02,3.08,9.5314,288.8531
1984-07-19 22:53:00 UTC,2445901.453472,25.8817,-84.3197,0179,-8.46,3.21,9.0485,290.7784
1984-07-19 23:08:00 UTC,2445901.463889,25.8817,-84.3197,0179,-8.16,3.18,8.7577,291.2911
1984-07-19 23:23:00 UTC,2445901.474306,25.8817,-84.3197,0179,-7.86,3.86,8.7567,296.1554
1984-07-19 23:38:00 UTC,2445901.484722,25.8817,-84.3197,0179,-8.36,3.42,9.0325,292.2490
1984-07-19 23:53:00 UTC,2445901.495139,25.8817,-84.3197,0179,-9.71,3.94,10.4789,292.0857
1984-07-20 00:08:00 UTC,2445901.505556,25.8817,-84.3197,0179,-9.31,4.33,10.2677,294.9427
1984-07-20 00:23:00 UTC,2445901.515972,25.8817,-84.3197,0179,-10.70,4.25,11.5131,291.6628
1984-07-20 00:38:00 UTC,2445901.526389,25.8817,-84.3197,0179,-10.16,3.27,10.6733,287.8408
1984-07-20 00:53:00 UTC,2445901.536806,25.8817,-84.3197,0179,-8.30,4.03,9.2266,295.8985
1984-07-20 01:08:00 UTC,2445901.547222,25.8817,-84.3197,0179,-9.13,3.55,9.7959,291.2475
1984-07-20 01:23:00 UTC,2445901.557639,25.8817,-84.3197,0179,-7.31,3.89,8.2806,298.0196
1984-07-20 01:38:00 UTC,2445901.568056,25.8817,-84.3197,0179,-6.10,2.92,6.7629,295.5799
1984-07-20 01:53:00 UTC,2445901.578472,25.8817,-84.3197,0179,-6.44,2.37,6.8623,290.2043
1984-07-20 02:08:00 UTC,2445901.588889,25.8817,-84.3197,0179,-6.04,1.74,6.2856,286.0706
1984-07-20 02:23:00 UTC,2445901.599306,25.8817,-84.3197,0179,-6.26,1.58,6.4563,284.1654
1984-07-20 02:38:00 UTC,2445901.609722,25.8817,-84.3197,0179,-6.47,1.42,6.6240,282.3787
1984-07-20 02:53:00 UTC,2445901.620139,25.8817,-84.3197,0179,-5.90,0.31,5.9081,273.0077
1984-07-20 03:08:00 UTC,2445901.630556,25.8817,-84.3197,0179,-7.70,3.04,8.2784,291.5444
1984-07-20 03:23:00 UTC,2445901.640972,25.8817,-84.3197,0179,-7.53,3.43,8.2744,294.4898
1984-07-20 03:38:00 UTC,2445901.651389,25.8817,-84.3197,0179,-6.65,3.53,7.5288,297.9606
1984-07-20 03:53:00 UTC,2445901.661806,25.8817,-84.3197,0179,-7.60,4.18,8.6737,298.8108
1984-07-20 04:08:00 UTC,2445901.672222,25.8817,-84.3197,0179,-7.61,4.16,8.6728,298.6632
1984-07-20 04:23:00 UTC,2445901.682639,25.8817,-84.3197,0179,-6.75,4.77,8.2653,305.2476
1984-07-20 04:38:00 UTC,2445901.693056,25.8817,-84.3197,0179,-3.00,7.32,7.9109,337.7144
1984-07-20 04:53:00 UTC,2445901.703472,25.8817,-84.3197,0179,-3.34,8.91,9.5154,339.4510
1984-07-20 05:08:00 UTC,2445901.713889,25.8817,-84.3197,0179,-2.03,7.64,7.9051,345.1199
1984-07-20 05:23:00 UTC,2445901.724306,25.8817,-84.3197,0179,-3.02,9.22,9.7020,341.8639
1984-07-20 05:38:00 UTC,2445901.734722,25.8817,-84.3197,0179,-3.16,8.78,9.3313,340.2057
1984-07-20 05:53:00 UTC,2445901.745139,25.8817,-84.3197,0179,-2.18,8.20,8.4848,345.1121
1984-07-20 06:08:00 UTC,2445901.755556,25.8817,-84.3197,0179,-2.28,7.77,8.0976,343.6464
1984-07-20 06:23:00 UTC,2445901.765972,25.8817,-84.3197,0179,-2.58,6.77,7.2449,339.1385
1984-07-20 06:38:00 UTC,2445901.776389,25.8817,-84.3197,0179,-2.58,6.77,7.2449,339.1385
1984-07-20 06:53:00 UTC,2445901.786806,25.8817,-84.3197,0179,-0.92,5.78,5.8528,350.9561
1984-07-20 07:08:00 UTC,2445901.797222,25.8817,-84.3197,0179,-1.54,6.19,6.3787,346.0291
1984-07-20 07:23:00 UTC,2445901.807639,25.8817,-84.3197,0179,-1.33,6.82,6.9485,348.9650
1984-07-20 07:38:00 UTC,2445901.818056,25.8817,-84.3197,0179,-0.87,7.00,7.0539,352.9153
1984-07-20 07:53:00 UTC,2445901.828472,25.8817,-84.3197,0179,-1.05,7.16,7.2366,351.6572
1984-07-20 08:08:00 UTC,2445901.838889,25.8817,-84.3197,0179,-0.92,6.70,6.7629,352.1814
1984-07-20 08:23:00 UTC,2445901.849306,25.8817,-84.3197,0179,-0.67,6.45,6.4847,354.0696
1984-07-20 08:38:00 UTC,2445901.859722,25.8817,-84.3197,0179,-0.83,7.77,7.8142,353.9027
1984-07-20 08:53:00 UTC,2445901.870139,25.8817,-84.3197,0179,-1.04,7.55,7.6213,352.1570
1984-07-20 09:08:00 UTC,2445901.880556,25.8817,-84.3197,0179,-1.39,6.72,6.8623,348.3134
1984-07-20 09:23:00 UTC,2445901.890972,25.8817,-84.3197,0179,-1.82,7.60,7.8149,346.5328
1984-07-20 09:38:00 UTC,2445901.901389,25.8817,-84.3197,0179,-2.43,7.12,7.5233,341.1556
1984-07-20 09:53:00 UTC,2445901.911806,25.8817,-84.3197,0179,-2.58,6.77,7.2449,339.1385
1984-07-20 10:08:00 UTC,2445901.922222,25.8817,-84.3197,0179,-2.26,6.27,6.6649,340.1785
1984-07-20 10:23:00 UTC,2445901.932639,25.8817,-84.3197,0179,-1.73,5.42,5.6894,342.2975
1984-07-20 10:38:00 UTC,2445901.943056,25.8817,-84.3197,0179,-2.15,5.29,5.7102,337.8818
1984-07-20 10:53:00 UTC,2445901.953472,25.8817,-84.3197,0179,-2.17,5.29,5.7178,337.6962
1984-07-20 11:08:00 UTC,2445901.963889,25.8817,-84.3197,0179,-1.44,5.62,5.8016,345.6284
1984-07-20 11:23:00 UTC,2445901.974306,25.8817,-84.3197,0179,-2.16,5.27,5.6955,337.7129
1984-07-20 11:38:00 UTC,2445901.984722,25.8817,-84.3197,0179,-2.90,5.69,6.3864,332.9936
1984-07-20 11:53:00 UTC,2445901.995139,25.8817,-84.3197,0179,-2.92,5.78,6.4757,333.1975
1984-07-20 12:08:00 UTC,2445902.005556,25.8817,-84.3197,0179,-2.82,5.62,6.2878,333.3535
1984-07-20 12:23:00 UTC,2445902.015972,25.8817,-84.3197,0179,-3.08,5.91,6.6644,332.4737
1984-07-20 12:38:00 UTC,2445902.026389,25.8817,-84.3197,0179,-3.11,4.33,5.3311,324.3124
1984-07-20 12:53:00 UTC,2445902.036806,25.8817,-84.3197,0179,-3.79,5.14,6.3862,323.5966
1984-07-20 13:08:00 UTC,2445902.047222,25.8817,-84.3197,0179,-4.06,6.09,7.3193,326.3099
1984-07-20 13:23:00 UTC,2445902.057639,25.8817,-84.3197,0179,-4.61,6.86,8.2651,326.0984
1984-07-20 13:38:00 UTC,2445902.068056,25.8817,-84.3197,0179,-4.11,6.75,7.9028,328.6632
1984-07-20 13:53:00 UTC,2445902.078472,25.8817,-84.3197,0179,-5.36,5.00,7.3300,313.0098
1984-07-20 14:08:00 UTC,2445902.088889,25.8817,-84.3197,0179,-5.29,4.65,7.0432,311.3160
1984-07-20 14:23:00 UTC,2445902.099306,25.8817,-84.3197,0179,-5.15,5.21,7.3257,315.3318
1984-07-20 14:38:00 UTC,2445902.109722,25.8817,-84.3197,0179,-3.50,6.98,7.8084,333.3693